Weather History for KBIX - December, 2014

Change the Weather History Date:

Tuesday, December 16, 2014

  Actual Average (KPQL) Record (KPQL)
Temperature  
Mean Temperature 58 °F -  
Max Temperature 68 °F 62 °F 78 °F (2001)
Min Temperature 47 °F 43 °F 22 °F (1951)
Degree Days  
Heating Degree Days 6    
Growing Degree Days 8 (Base 50)    
Moisture  
Dew Point 48 °F    
Average Humidity 67    
Maximum Humidity 100    
Minimum Humidity 32    
Precipitation  
Precipitation 0.01 in - - ()
Sea Level Pressure  
Sea Level Pressure 30.15 in    
Wind  
Wind Speed 9 mph (NW)    
Max Wind Speed 14 mph    
Max Gust Speed 21 mph    
Visibility 10 miles    
Events Rain    
Averages and records for this station are not official NWS values.
T = Trace of Precipitation, MM = Missing Value Source: NWS Daily Summary

Daily Weather History Graph

Daily Weather History Graph

Search for Another Location

Airport or City:

Trip Planner

Search our weather history database for the weather conditions in past years. The results will help you decide how hot, cold, wet, or windy it might be!

Date:

Astronomy

Dec. 16, 2014 Rise Set
Actual Time 6:45 AM CST 4:57 PM CST
Civil Twilight 6:19 AM CST 5:23 PM CST
Nautical Twilight 5:49 AM CST 5:53 PM CST
Astronomical Twilight 5:19 AM CST 6:23 PM CST
Moon 1:20 AM CST (12/16) 1:09 PM CST (12/16)
Length of Visible Light 11h 04m
Length of Day
10h 11m
Waning Crescent, 29% of the Moon is Illuminated
Dec 16
Waning Crescent
Dec 21
New
Dec 28
First Quarter
Jan 4
Full
Jan 13
Last Quarter

Hourly Weather History & Observations

Time (CST) Temp. Dew Point Humidity Pressure Visibility Wind Dir Wind Speed Gust Speed Precip Events Conditions
12:58 AM 63.1 °F 63.1 °F 100% 30.05 in 10.0 mi WSW 11.5 mph - N/A   Clear
1:58 AM 64.4 °F 64.4 °F 100% 30.06 in 10.0 mi WSW 13.8 mph - N/A   Mostly Cloudy
2:55 AM 64.4 °F 64.4 °F 100% 30.06 in 8.0 mi West 9.2 mph - N/A Rain Light Rain
2:58 AM 64.4 °F 64.4 °F 100% 30.07 in 8.0 mi West 10.4 mph - N/A Rain Light Rain
3:03 AM 64.4 °F 64.4 °F 100% 30.07 in 8.0 mi WNW 8.1 mph - N/A Rain Light Rain
3:08 AM 64.4 °F 62.6 °F 94% 30.07 in 10.0 mi Variable 6.9 mph 20.7 mph N/A Rain Light Rain
3:15 AM 62.6 °F 60.8 °F 94% 30.07 in 10.0 mi Variable 5.8 mph - N/A   Overcast
3:25 AM 62.6 °F 60.8 °F 94% 30.07 in 10.0 mi Variable 2.3 mph - N/A   Overcast
3:58 AM 61.0 °F 61.0 °F 100% 30.07 in 10.0 mi Variable 2.3 mph - 0.01 in   Overcast
4:58 AM 60.1 °F 56.8 °F 89% 30.10 in 10.0 mi Variable 2.3 mph - N/A   Overcast
5:58 AM 59.4 °F 49.6 °F 70% 30.12 in 10.0 mi Variable 3.5 mph - N/A   Mostly Cloudy
6:58 AM 58.3 °F 45.5 °F 62% 30.15 in 10.0 mi Variable 5.8 mph - N/A   Overcast
7:58 AM 57.6 °F 43.0 °F 58% 30.17 in 10.0 mi NW 10.4 mph - N/A   Mostly Cloudy
8:58 AM 59.4 °F 40.6 °F 50% 30.19 in 10.0 mi NNW 10.4 mph - N/A   Clear
9:58 AM 61.2 °F 37.9 °F 42% 30.21 in 10.0 mi NNW 13.8 mph - N/A   Clear
10:58 AM 63.7 °F 37.6 °F 38% 30.19 in 10.0 mi NNW 10.4 mph - N/A   Clear
11:58 AM 67.6 °F 37.4 °F 33% 30.17 in 10.0 mi NW 10.4 mph - N/A   Clear
12:58 PM 68.0 °F 37.0 °F 32% 30.14 in 10.0 mi Variable 4.6 mph - N/A   Clear
1:58 PM 68.5 °F 37.8 °F 32% 30.13 in 10.0 mi NW 6.9 mph - N/A   Clear
2:58 PM 67.8 °F 39.6 °F 36% 30.13 in 10.0 mi NW 10.4 mph - N/A   Clear
3:58 PM 65.1 °F 37.6 °F 36% 30.15 in 10.0 mi NNW 9.2 mph - N/A   Clear
4:58 PM 61.7 °F 39.2 °F 43% 30.17 in 10.0 mi NW 5.8 mph - N/A   Clear
5:58 PM 58.3 °F 41.4 °F 53% 30.20 in 10.0 mi NNW 5.8 mph - N/A   Clear
6:58 PM 55.8 °F 42.1 °F 60% 30.22 in 10.0 mi NNW 5.8 mph - N/A   Clear
7:58 PM 53.8 °F 40.8 °F 62% 30.24 in 10.0 mi North 5.8 mph - N/A   Clear
8:58 PM 52.0 °F 39.0 °F 61% 30.25 in 10.0 mi North 6.9 mph - N/A   Clear
9:58 PM 50.2 °F 39.6 °F 67% 30.27 in 10.0 mi North 6.9 mph - N/A   Clear
10:58 PM 49.1 °F 38.5 °F 67% 30.27 in 10.0 mi North 9.2 mph - N/A   Clear
11:58 PM 47.1 °F 38.1 °F 71% 30.26 in 10.0 mi North 6.9 mph - N/A   Clear